"Pseudo-MPEC" for P10NxKM

Created 2019 Jun 2 14:07:19 UT using Find_Orb

Click here for an explanation of pseudo-MPECs

 
 Astrometry: 
     P10NxKM  C2019 04 02yB9[p]cUIpXZB-tghMas/m!XS=_,_RheI%)X(y7ZYJ\-k$ZRRj.EF51
     P10NxKM  C2019 04 24EfRb%^GXg'`p_hoP+)0U?=DxRvB:Ag'M*,1QlyRh_@8iKAyZaqZ+F51
     P10NxKM  C2019 04 24of[kAstrometry'2.redacted;On:H3,f28/KYG;^hns)e-44tI%F51
     P10NxKM  C2019 04 24UKl=T.1IVx/weH,j[S_sATF%?T9T(c3]h%wheDd/A)1'sFZY@V3@F51
     P10NxKM  C2019 04 24[,tN:Vk(m4aGeO3etQtoZ`w-,1@gSG:u+TRv6y0xGuM4:!e5KyO`F51
     P10NxKM  C2019 05 07[3'bU4/1N^]j9sj#K7SyKmTclickj\%Ce[)Go0c$ELiM0,0!y^kVF51
     P10NxKM  C2019 05 07/\cba1=QGvN3XWZ'hC+got:YZ%ZYc%jL;S5dR-2([E`9Yg[VL%GpF51
     P10NxKM  C2019 05 07^[us;8R_en8p#,Xi49hO,!AWiC6j:tK5G@(%mnrGO-vuj`JherevF51
     P10NxKM  C2019 05 07aAr0a.TU\%E*M*%@RQAp(GD#7^(3EI+=YGK3.lGlltvLn(#iR^qyF51
     P10NxKM |C2019 05 12(Ofor6AW$f/^9V/3qLZcs/9yWuGN`rMCGXB*8+BQ,1O#8cA1r40*807
     P10NxKM |C2019 05 120fQ^'#e$K]B]YveI''U902QsSbFhL*R8[j?8/wcm?!LFw7I$r$=\807
     P10NxKM |C2019 05 126H0Dd0f6:)Obgq+ds,ks)(B-UF%k7M![l1!(K?eT'hBRBMq;Yb5D807
     P10NxKM  C2019 05 28W#yX(EI0F^X_^]XJ8984kZabOtJdjovmHTvmW,:;bLFcXpUqbibvF51
     P10NxKM  C2019 05 28*%LXOjHxfGtlnQRbl:hF:,$1auM+8$5=*nFNpE;2FiXnA0WgJy4?F51
     P10NxKM  C2019 05 28+l*GBWRZ5AQ?iQn`PcLP,+E';Vo@U]_;)ibKn_j56/%BWert7I'vF51
     P10NxKM  C2019 05 28Hbl$W23nK(explanationxnjIH8/8NySA3rn.c=i:eQ,Ccr01C9cF51
     P10NxKM ^C2019 06 01.27059912 25 02.941+04 03 40.83   ~61L7 22.99GVNEOCP568
     P10NxKM ^C2019 06 01.27139812 25 02.944+04 03 40.67   ~61L7 23.06GVNEOCP568
     P10NxKM ^C2019 06 01.27258112 25 02.955+04 03 40.38   ~61L7 22.87GVNEOCP568

Station data:
(568) Mauna Kea  (N19.826116 W155.472200)  US/Hawaii.
(807) Cerro Tololo Observatory, La Serena  (S30.169136 W70.805900)  Chile.
(F51) Pan-STARRS 1, Haleakala  (N20.707235 W156.255910)  US/Hawaii.
   Observers N. Primak, A. Schultz, S. Watters, J. Thiel, T. Goggia. Measurer
   PS1 Science Consortium. 1.8-m Ritchey-Chrétien + CCD.

Orbital elements:  P10NxKM
   Perihelion 2020 May 27.651897 +/- 0.149 TT = 15:38:43 (JD 2458997.151897)
Epoch 2019 Jun  1.0 TT = JDT 2458635.5   Earth MOID: 0.6826   AutoNEOCP
M 248.02754720 +/- 0.057            (J2000 ecliptic)
n   0.30961389 +/- 3.36e-5          Peri.  224.03231 +/- 0.038
a   2.16399250 +/- 0.000157         Node   115.33370 +/- 0.0042
e   0.2197629 +/- 3.6e-5            Incl.    4.68974 +/- 0.00013
P   3.18                   H 18.7   G  0.15   U  5.9  
q 1.68842705 +/- 4.96e-5    Q 2.63955796 +/- 0.000268
From 19 observations 2019 Apr. 2-June 1; mean residual 0".10
Residuals in arcseconds: 
190402 F51  .01+  .06+    190507 F51  .01-  .17+    190528 F51  .07-  .03+    
190424 F51  .05-  .04-    190507 F51  .09-  .03-    190528 F51  .09+  .05+    
190424 F51  .08-  .06-    190512 807  .21-  .12-    190601 568  .04+  .03-    
190424 F51  .10+  .11-    190512 807  .15+  .01+    190601 568  .02+  .03-    
190424 F51  .08+  .01-    190512 807  .22+  .16-    190601 568  .08+  .08-    
190507 F51  .00   .04-    190528 F51  .21-  .13+    
190507 F51  .14-  .19+    190528 F51  .03+  .08+    

Ephemerides (geocentric):
Date (UTC) HH   RA              Dec         delta   r     elong  mag " sig PA
---- -- -- --  -------------   -----------  ------ ------ -----  --- ---- ---
2019 06 02 14  12 25 14.540   +03 59 07.98  1.8390 2.4170 112.6 23.1 .135 145
2019 06 02 15  12 25 14.952   +03 58 59.00  1.8394 2.4170 112.5 23.1 .136 145
2019 06 02 16  12 25 15.366   +03 58 50.00  1.8398 2.4169 112.5 23.1 .137 144
2019 06 02 17  12 25 15.783   +03 58 40.98  1.8402 2.4168 112.5 23.1 .138 144
2019 06 02 18  12 25 16.203   +03 58 31.95  1.8406 2.4167 112.4 23.1 .140 144
2019 06 02 19  12 25 16.626   +03 58 22.89  1.8410 2.4166 112.4 23.1 .141 144
2019 06 02 20  12 25 17.051   +03 58 13.83  1.8414 2.4165 112.3 23.1 .142 144
2019 06 02 21  12 25 17.479   +03 58 04.74  1.8418 2.4165 112.3 23.1 .143 144
2019 06 02 22  12 25 17.909   +03 57 55.64  1.8422 2.4164 112.3 23.1 .144 144
2019 06 02 23  12 25 18.343   +03 57 46.52  1.8426 2.4163 112.2 23.1 .146 144
2019 06 03 00  12 25 18.779   +03 57 37.38  1.8430 2.4162 112.2 23.1 .147 143
2019 06 03 01  12 25 19.217   +03 57 28.22  1.8435 2.4161 112.2 23.1 .148 143
2019 06 03 02  12 25 19.659   +03 57 19.05  1.8439 2.4161 112.1 23.1 .149 143
2019 06 03 03  12 25 20.103   +03 57 09.86  1.8443 2.4160 112.1 23.1 .150 143
2019 06 03 04  12 25 20.549   +03 57 00.66  1.8447 2.4159 112.1 23.1 .152 143
2019 06 03 05  12 25 20.999   +03 56 51.44  1.8451 2.4158 112.0 23.1 .153 143
2019 06 03 06  12 25 21.451   +03 56 42.20  1.8455 2.4157 112.0 23.1 .154 143
2019 06 03 07  12 25 21.906   +03 56 32.94  1.8459 2.4157 111.9 23.1 .155 143
2019 06 03 08  12 25 22.364   +03 56 23.67  1.8463 2.4156 111.9 23.1 .157 142
2019 06 03 09  12 25 22.824   +03 56 14.38  1.8467 2.4155 111.9 23.1 .158 142
2019 06 03 10  12 25 23.287   +03 56 05.07  1.8471 2.4154 111.8 23.1 .159 142
2019 06 03 11  12 25 23.753   +03 55 55.75  1.8475 2.4153 111.8 23.1 .160 142
2019 06 03 12  12 25 24.221   +03 55 46.41  1.8479 2.4152 111.8 23.1 .162 142
2019 06 03 13  12 25 24.692   +03 55 37.05  1.8484 2.4152 111.7 23.1 .163 142
2019 06 03 14  12 25 25.166   +03 55 27.67  1.8488 2.4151 111.7 23.1 .164 142
2019 06 03 15  12 25 25.642   +03 55 18.28  1.8492 2.4150 111.6 23.1 .165 142
2019 06 03 16  12 25 26.121   +03 55 08.87  1.8496 2.4149 111.6 23.1 .167 142
2019 06 03 17  12 25 26.603   +03 54 59.45  1.8500 2.4148 111.6 23.1 .168 142
2019 06 03 18  12 25 27.087   +03 54 50.00  1.8504 2.4148 111.5 23.1 .169 141
2019 06 03 19  12 25 27.575   +03 54 40.55  1.8508 2.4147 111.5 23.1 .171 141
2019 06 03 20  12 25 28.064   +03 54 31.07  1.8512 2.4146 111.5 23.1 .172 141
2019 06 03 21  12 25 28.557   +03 54 21.58  1.8516 2.4145 111.4 23.1 .173 141
2019 06 03 22  12 25 29.052   +03 54 12.07  1.8520 2.4144 111.4 23.1 .174 141
2019 06 03 23  12 25 29.550   +03 54 02.54  1.8525 2.4143 111.4 23.1 .176 141
2019 06 04 00  12 25 30.050   +03 53 53.00  1.8529 2.4143 111.3 23.1 .177 141
2019 06 04 01  12 25 30.554   +03 53 43.44  1.8533 2.4142 111.3 23.1 .178 141
2019 06 04 02  12 25 31.060   +03 53 33.86  1.8537 2.4141 111.2 23.1 .180 141
2019 06 04 03  12 25 31.568   +03 53 24.27  1.8541 2.4140 111.2 23.1 .181 141
2019 06 04 04  12 25 32.079   +03 53 14.66  1.8545 2.4139 111.2 23.1 .182 140
2019 06 04 05  12 25 32.593   +03 53 05.03  1.8549 2.4139 111.1 23.1 .184 140
2019 06 04 06  12 25 33.110   +03 52 55.39  1.8553 2.4138 111.1 23.1 .185 140
2019 06 04 07  12 25 33.629   +03 52 45.72  1.8557 2.4137 111.1 23.1 .186 140
2019 06 04 08  12 25 34.151   +03 52 36.05  1.8562 2.4136 111.0 23.1 .188 140
2019 06 04 09  12 25 34.676   +03 52 26.35  1.8566 2.4135 111.0 23.1 .189 140
2019 06 04 10  12 25 35.203   +03 52 16.64  1.8570 2.4134 111.0 23.1 .190 140
2019 06 04 11  12 25 35.733   +03 52 06.92  1.8574 2.4134 110.9 23.1 .192 140
2019 06 04 12  12 25 36.266   +03 51 57.17  1.8578 2.4133 110.9 23.1 .193 140
2019 06 04 13  12 25 36.801   +03 51 47.41  1.8582 2.4132 110.8 23.1 .194 140